Location: Unspecified
(52.4292°N, 19.3359°E)
Time: 23:34:50
(UTC+02:00)

SR - Pass Details

Date: 02 June 2024
Orbit: 580 x 858 km, 66.7° (Epoch: 12 June)

Event Time Altitude Azimuth Distance (km) Brightness Sun altitude
Rises 18:04:48 0° 260° (W) 3,104 ? 22.9°
Reaches altitude 10° 18:07:36 10° 274° (W) 2,135 ? 22.5°
Maximum altitude 18:11:34 25° 329° (NNW) 1,328 ? 21.9°
Drops below altitude 10° 18:15:19 10° 25° (NNE) 2,009 ? 21.3°
Sets 18:17:52 0° 39° (NE) 2,882 ? 20.9°
